GW0422 Weather Reports


time (UTC)temp
C
wind
direction
speed
KPH
gust
KPH
rain 1hr
cm
rain 24hr
cm
rain mn
cm
humidity
%
barometer
mb
20260507191903 12 202 0.0 8.0 0.00 0.00 0.00 58 1014.6
20260507190906 12 137 1.6 12.9 0.00 0.00 0.00 57 1014.5
20260507185913 12 158 0.0 4.8 0.00 0.00 0.00 58 1014.5
20260507184914 12 177 1.6 9.7 0.00 0.00 0.00 57 1014.4
20260507183918 12 17 0.0 11.3 0.00 0.00 0.00 57 1014.3
20260507182919 13 211 1.6 8.0 0.00 0.00 0.00 56 1014.3
20260507182403 13 155 1.6 12.9 0.00 0.00 0.00 56 1014.4
20260507181401 13 229 0.0 8.0 0.00 0.00 0.00 55 1014.3
20260507180410 13 189 3.2 16.1 0.00 0.00 0.00 55 1014.2
20260507175410 13 217 1.6 8.0 0.00 0.00 0.00 54 1014.1
20260507174413 13 216 1.6 9.7 0.00 0.00 0.00 54 1014.1
20260507173415 13 161 3.2 11.3 0.00 0.00 0.00 53 1014.2
20260507172418 13 158 1.6 9.7 0.00 0.00 0.00 53 1014.3
20260507171406 13 196 0.0 8.0 0.00 0.00 0.00 53 1014.3
20260507170409 13 115 3.2 11.3 0.00 0.00 0.00 53 1014.3
20260507165419 13 126 1.6 11.3 0.00 0.00 0.00 52 1014.6
20260507163411 13 153 0.0 8.0 0.00 0.00 0.00 55 1014.5
20260507162416 12 199 0.0 8.0 0.00 0.00 0.00 57 1014.5
20260507161417 12 153 0.0 9.7 0.00 0.00 0.00 56 1014.6
20260507160419 12 154 0.0 6.4 0.00 0.00 0.00 57 1014.6
20260507155900 12 168 0.0 8.0 0.00 0.00 0.00 57 1014.7
20260507154902 12 166 1.6 9.7 0.00 0.00 0.00 57 1014.7
20260507153903 12 131 1.6 8.0 0.00 0.00 0.00 58 1014.8
20260507152913 12 141 1.6 8.0 0.00 0.00 0.00 58 1014.8
20260507151919 12 177 1.6 9.7 0.00 0.00 0.00 58 1014.8
20260507151402 12 172 0.0 9.7 0.00 0.00 0.00 58 1014.8
20260507150409 12 226 1.6 6.4 0.00 0.00 0.00 57 1014.9
20260507145416 12 177 0.0 8.0 0.00 0.00 0.00 57 1014.9
20260507144412 12 211 0.0 8.0 0.00 0.00 0.00 57 1014.9
20260507143420 12 145 1.6 9.7 0.00 0.00 0.00 57 1015.1
20260507142421 13 207 0.0 8.0 0.00 0.00 0.00 56 1015.2
20260507141427 13 189 0.0 8.0 0.00 0.00 0.00 57 1015.2
20260507140406 13 178 1.6 6.4 0.00 0.00 0.00 57 1015.3
20260507135407 13 164 0.0 12.9 0.00 0.00 0.00 57 1015.5
20260507134410 13 109 0.0 8.0 0.00 0.00 0.00 57 1015.6
20260507132902 13 183 1.6 6.4 0.00 0.00 0.00 59 1015.6
20260507131906 13 127 0.0 6.4 0.00 0.00 0.00 59 1015.6
20260507130907 12 172 1.6 6.4 0.00 0.00 0.00 59 1015.6
20260507125910 12 160 1.6 8.0 0.00 0.00 0.00 60 1015.8
20260507124911 12 179 1.6 8.0 0.00 0.00 0.00 62 1015.8
20260507123915 12 148 1.6 8.0 0.00 0.00 0.00 62 1015.9
20260507122921 12 241 1.6 8.0 0.00 0.00 0.00 63 1016.0
20260507122419 12 112 1.6 8.0 0.00 0.00 0.00 63 1015.9
20260507121400 -17 171 3.2 9.7 0.00 0.00 0.00 1015.8
20260507120401 -17 105 0.0 6.4 0.00 0.00 0.00 1016.0
20260507115410 -17 195 0.0 9.7 0.00 0.00 0.00 1016.1
20260507114907 -17 148 1.6 6.4 0.00 0.00 0.00 1016.0
20260507113910 -17 174 1.6 8.0 0.00 0.00 0.00 1016.0
20260507112909 -17 189 1.6 11.3 0.00 0.00 0.00 1016.4
20260507111910 -17 144 3.2 12.9 0.00 0.00 0.00 1016.4
20260507110911 -17 227 1.6 11.3 0.00 0.00 0.00 1016.5
20260507105913 -17 187 0.0 9.7 0.00 0.00 0.00 1016.6
20260507104914 -17 193 3.2 12.9 0.00 0.00 0.00 1016.6
20260507103917 -17 110 3.2 14.5 0.00 0.00 0.00 1016.4
20260507102917 -17 162 1.6 6.4 0.00 0.00 0.00 1016.4
20260507102415 -17 173 1.6 6.4 0.00 0.00 0.00 1016.5
20260507101418 10 193 4.8 11.3 0.00 0.00 0.00 72 1016.6
20260507100903 10 97 0.0 9.7 0.00 0.00 0.00 73 1016.6
20260507095904 10 216 1.6 9.7 0.00 0.00 0.00 75 1016.6
20260507094909 9 199 3.2 6.4 0.00 0.00 0.00 75 1016.5
20260507093911 9 168 0.0 6.4 0.00 0.00 0.00 76 1016.5
20260507092926 9 101 3.2 9.7 0.00 0.00 0.00 76 1016.4
20260507091916 8 89 0.0 8.0 0.00 0.00 0.00 80 1016.3
20260507090918 8 166 0.0 4.8 0.00 0.00 0.00 80 1016.5
20260507090404 8 191 0.0 6.4 0.00 0.00 0.00 80 1016.5
20260507085404 7 92 1.6 6.4 0.00 0.00 0.00 81 1016.5
20260507084406 7 156 1.6 9.7 0.00 0.00 0.00 80 1016.5
20260507083409 7 181 1.6 8.0 0.00 0.00 0.00 80 1016.5
20260507082417 7 107 1.6 6.4 0.00 0.00 0.00 80 1016.4
20260507081416 7 181 0.0 4.8 0.00 0.00 0.00 81 1016.4
20260507080418 7 174 0.0 8.0 0.00 0.00 0.00 81 1016.3
20260507075904 7 155 1.6 8.0 0.00 0.00 0.00 81 1016.3
20260507074411 7 178 1.6 4.8 0.00 0.00 0.00 81 1016.4
20260507073511 6 162 0.0 9.7 0.00 0.00 0.00 80 1016.4
20260507071900 6 192 0.0 6.4 0.00 0.00 0.00 81 1016.4
20260507070903 6 194 0.0 4.8 0.00 0.00 0.00 81 1016.3
20260507065911 6 189 0.0 3.2 0.00 0.00 0.00 82 1016.2
20260507064402 6 111 0.0 4.8 0.00 0.00 0.00 82 1016.3
20260507063409 6 108 0.0 6.4 0.00 0.00 0.00 82 1016.2
20260507062902 6 178 0.0 4.8 0.00 0.00 0.00 83 1016.4
20260507061904 5 145 0.0 0.0 0.00 0.00 0.00 84 1016.3
20260507060907 5 145 0.0 1.6 0.00 0.00 0.00 84 1016.2
20260507055912 5 195 1.6 6.4 0.00 0.00 0.00 85 1016.0
20260507054912 5 176 0.0 1.6 0.00 0.00 0.00 86 1016.1
20260507053917 5 117 0.0 0.0 0.00 0.00 0.00 88 1016.0
20260507052917 4 117 0.0 0.0 0.00 0.00 0.00 87 1016.1
20260507052401 4 117 0.0 1.6 0.00 0.00 0.00 88 1016.1
20260507051403 4 117 0.0 3.2 0.00 0.00 0.00 89 1016.1
20260507050406 4 117 0.0 1.6 0.00 0.00 0.00 90 1016.1
20260507045408 3 117 0.0 3.2 0.00 0.00 0.00 91 1016.0
20260507044417 3 104 0.0 3.2 0.00 0.00 0.00 92 1016.0
20260507043416 3 91 0.0 1.6 0.00 0.00 0.00 93 1016.0
20260507042359 2 58 0.0 0.0 0.00 0.00 0.00 93 1016.0
20260507040907 2 58 0.0 1.6 0.00 0.00 0.00 93 1015.9
20260507035918 2 58 0.0 0.0 0.00 0.00 0.00 92 1016.0
20260507034900 2 58 0.0 1.6 0.00 0.00 0.00 92 1016.0
20260507033902 2 58 0.0 0.0 0.00 0.00 0.00 92 1016.1
20260507032407 2 58 0.0 3.2 0.00 0.00 0.00 94 1016.1
20260507031414 2 90 0.0 1.6 0.00 0.00 0.00 94 1016.2
20260507030405 2 90 1.6 3.2 0.00 0.00 0.00 94 1016.3
20260507025405 2 154 0.0 0.0 0.00 0.00 0.00 95 1016.2
20260507024409 1 154 0.0 0.0 0.00 0.00 0.00 94 1016.4
20260507023413 1 154 0.0 0.0 0.00 0.00 0.00 94 1016.3
20260507022907 1 154 0.0 0.0 0.00 0.00 0.00 94 1016.4
20260507021910 1 154 0.0 1.6 0.00 0.00 0.00 93 1016.4
20260507020919 1 154 0.0 0.0 0.00 0.00 0.00 92 1016.3
20260507020415 1 154 0.0 0.0 0.00 0.00 0.00 92 1016.3
20260507015900 1 154 0.0 0.0 0.00 0.00 0.00 92 1016.3
20260507014900 1 154 0.0 0.0 0.00 0.00 0.00 92 1016.3
20260507013908 1 154 0.0 0.0 0.00 0.00 0.00 93 1016.3
20260507012911 1 154 0.0 1.6 0.00 0.00 0.00 93 1016.3
20260507011914 0 154 0.0 0.0 0.00 0.00 0.00 91 1016.2
20260507010917 1 154 0.0 0.0 0.00 0.00 0.00 90 1016.4
20260507005858 1 154 0.0 0.0 0.00 0.00 0.00 89 1016.4
20260507004901 1 154 0.0 0.0 0.00 0.00 0.00 88 1016.5
20260507003414 1 154 0.0 0.0 0.00 0.00 0.00 88 1016.5
20260507002420 1 154 0.0 0.0 0.00 0.00 0.00 88 1016.4
20260507001913 2 154 0.0 0.0 0.00 0.00 0.00 88 1016.5
20260507000915 2 154 0.0 0.0 0.00 0.00 0.00 87 1016.5
20260506235906 2 154 0.0 0.0 0.00 0.00 0.00 86 1016.7
20260506234907 2 154 0.0 0.0 0.00 0.00 0.00 86 1016.7
20260506233908 3 154 0.0 0.0 0.00 0.00 0.00 84 1016.8
20260506232909 3 154 0.0 1.6 0.00 0.00 0.00 85 1016.6
20260506231909 3 148 0.0 0.0 0.00 0.00 0.00 82 1016.5
20260506230915 3 148 0.0 1.6 0.00 0.00 0.00 81 1016.6
20260506225928 4 148 0.0 1.6 0.00 0.00 0.00 81 1016.6
20260506224907 4 148 0.0 1.6 0.00 0.00 0.00 80 1016.6
20260506223419 5 148 0.0 3.2 0.00 0.00 0.00 78 1016.6
20260506222417 5 73 0.0 0.0 0.00 0.00 0.00 76 1016.5
20260506221419 6 73 0.0 4.8 0.00 0.00 0.00 76 1016.4
20260506220401 6 125 0.0 3.2 0.00 0.00 0.00 75 1016.3
20260506215402 6 119 0.0 3.2 0.00 0.00 0.00 74 1016.3
20260506214405 6 103 0.0 4.8 0.00 0.00 0.00 73 1016.4
20260506213412 6 133 0.0 4.8 0.00 0.00 0.00 73 1016.4
20260506211916 6 127 0.0 4.8 0.00 0.00 0.00 72 1016.6
20260506210921 7 39 0.0 4.8 0.00 0.00 0.00 72 1016.3
20260506210406 7 291 0.0 4.8 0.00 0.00 0.00 71 1016.2
20260506205859 7 82 0.0 4.8 0.00 0.00 0.00 71 1016.2
20260506204903 7 222 0.0 4.8 0.00 0.00 0.00 70 1016.2
20260506203904 7 31 1.6 6.4 0.00 0.00 0.00 69 1016.2
20260506202918 7 10 0.0 6.4 0.00 0.00 0.00 69 1016.2
20260506201912 7 156 0.0 4.8 0.00 0.00 0.00 69 1016.0
20260506200910 8 94 0.0 9.7 0.00 0.00 0.00 69 1015.9
20260506195913 8 153 1.6 4.8 0.00 0.00 0.00 68 1015.9
20260506194915 8 360 1.6 6.4 0.00 0.00 0.00 67 1015.8
20260506193922 8 139 0.0 9.7 0.00 0.00 0.00 66 1015.7
20260506193404 8 140 0.0 8.0 0.00 0.00 0.00 66 1015.6